Weather Roundup
Issued by NWS Corpus Christi, TX

Home | Current Version | Previous Version | Text Only | Print | Product List | Glossary On
Versions: 1 2 3 4 5 6 7 8 9 10 11 12 13 14 15 16 17 18 19 20 21 22 23 24 25 26 27 28 29 30 31 32 33 34 35 36 37 38 39 40 41 42 43 44 45 46 47 48 49 50
000
ASUS44 KCRP 132110
HRRCRP

SOUTH TEXAS REGIONAL WEATHER ROUNDUP
NATIONAL WEATHER SERVICE CORPUS CHRISTI TX
300 PM CST SAT FEB 13 2016


TXZ229>244-132200-
...CORPUS CHRISTI AREA OBSERVATIONS...

CITY           SKY/WX    TMP DP  RH WIND       PRES   REMARKS
CORPUS CHRISTI MOSUNNY   75  52  44 SE20      30.23F
NAS CORPUS CHR MOSUNNY   73  58  59 SE13      30.24F
ROCKPORT       SUNNY     73  59  61 SE12      30.25F
KINGSVILLE NAS LGT RAIN  76  56  49 SE15G22   30.22F
ALICE          SUNNY     78  50  37 S15G23    30.20F
FALFURRIAS     SUNNY     79  50  35 S3        30.19F
$$

...VICTORIA AREA OBSERVATIONS...

CITY           SKY/WX    TMP DP  RH WIND       PRES   REMARKS
VICTORIA       MOSUNNY   74  59  59 SE15      30.25F
BEEVILLE       FAIR      78  51  39 SE14G22   30.22F
PLEASANTON     SUNNY     75  51  42 SE6       30.22F
SAN ANTONIO    MOSUNNY   73  52  47 S9G18     30.22F
$$

...LAREDO AREA OBSERVATIONS...

CITY           SKY/WX    TMP DP  RH WIND       PRES   REMARKS
LAREDO         SUNNY     81  48  31 SE14      30.17F
COTULLA        SUNNY     80  45  28 SE16G23   30.18F
DEL RIO        SUNNY     78  46  32 SE16      30.14F
MCALLEN        SUNNY     83  52  34 SE12G21   30.19F
HEBBRONVILLE   NOT AVBL
$$

...OTHER TEXAS OBSERVATIONS...

CITY           SKY/WX    TMP DP  RH WIND       PRES   REMARKS
BROWNSVILLE    PTSUNNY   75  56  51 SE12G21   30.23F
HOUSTON        MOSUNNY   66  50  56 SE12G21   30.29F
COL. STATION   CLOUDY    71  56  58 SE9       30.25F
AUSTIN         PTSUNNY   74  54  49 S15       30.22F
WACO           MOSUNNY   71  49  45 S14       30.22F
FORT WORTH     MOSUNNY   65  37  35 S10       30.22F
WICHITA FALLS  SUNNY     64  36  35 S10       30.17F
LUBBOCK        PTSUNNY   68  35  29 S20G29    30.09F
EL PASO        MOSUNNY   74  12   9 W6        30.12F
$$

...MARINE OBSERVATIONS...

STATION/POSITION TIME  SKY/WX   TEMP    WIND        PRES    VSBY  WAVE   SWELL
                                AIR SEA DIR/SP/G                  HT/PER HT/PER
                 (UTC)          (F)     (DEG/KT/KT) (MB)    (MI)  (FT/S) (FT/S)
PORT ARANSAS     2100            64 67   80/  9/ 10 1025.3F
BUOY 90 E PORT A 2050            67 65  140/  6/  6 1025.2F         1/ 5   2/ 5
BUOY 45 SE BAFFI 2050            69 66  160/ 10/ 12 1024.3F         1/ 5
BUOY 200 E PT IS 2050                                 N/A           1/ 5
BUOY 15 E GALVES 2050            60 59  120/ 16/ 17 1026.0F         4/ 5
$$



USA.gov is the U.S. government's official web portal to all federal, state and local government web resources and services.